Greenville, MS

7:59 AM CDT on June 23, 2017 (GMT -0500)
Mid Delta Regional

Weather History for KGLH - May, 2012

Change the Weather History Date:

Saturday, May 5, 2012

  Actual Average Record
Temperature  
Mean Temperature 80 °F 69 °F  
Max Temperature 90 °F 80 °F 93 °F (1943)
Min Temperature 70 °F 59 °F 43 °F (1921)
Degree Days  
Heating Degree Days 0 1  
Month to date heating degree days 0 5  
Since 1 July heating degree days 2118 2766  
Cooling Degree Days 15 5  
Month to date cooling degree days 71 24  
Year to date cooling degree days 259 110  
Growing Degree Days 30 (Base 50)    
Moisture  
Dew Point 69 °F    
Average Humidity 72    
Maximum Humidity 97    
Minimum Humidity 47    
Precipitation  
Precipitation 0.00 in 0.19 in 2.34 in (1958)
Month to date precipitation 0.42 0.90  
Year to date precipitation 13.17 20.25  
Sea Level Pressure  
Sea Level Pressure 29.93 in    
Wind  
Wind Speed 5 mph (SSW)    
Max Wind Speed 13 mph    
Max Gust Speed 17 mph    
Visibility 10 miles    
Events      
T = Trace of Precipitation, MM = Missing Value Source: NWS Daily Summary

Daily Weather History Graph

Daily Weather History Graph

Search for Another Location

Airport or City:

Trip Planner

Search our weather history database for the weather conditions in past years. The results will help you decide how hot, cold, wet, or windy it might be!

Date:

Astronomy

May. 05, 2012 Rise Set
Actual Time 6:11 AM CDT 7:50 PM CDT
Civil Twilight 5:44 AM CDT 8:17 PM CDT
Nautical Twilight 5:12 AM CDT 8:49 PM CDT
Astronomical Twilight 4:38 AM CDT 9:23 PM CDT
Moon 7:41 PM CDT (5/5) 5:33 AM CDT (5/5)
Length of Visible Light 14h 32m
Length of Day
13h 38m
Full, 100% of the Moon is Illuminated
May 5
Full
May 5
Full
May 12
Last Quarter
May 20
New
May 28
First Quarter

Hourly Weather History & Observations

Time (CDT) Temp. Heat Index Dew Point Humidity Pressure Visibility Wind Dir Wind Speed Gust Speed Precip Events Conditions
12:53 AM 75.0 °F - 70.0 °F 84% 29.96 in 10.0 mi SSW 5.8 mph - N/A   Scattered Clouds
1:53 AM 73.0 °F - 70.0 °F 90% 29.94 in 10.0 mi SSW 3.5 mph - N/A   Mostly Cloudy
2:53 AM 75.0 °F - 70.0 °F 84% 29.93 in 10.0 mi South 4.6 mph - N/A   Overcast
3:53 AM 71.1 °F - 69.1 °F 93% 29.93 in 10.0 mi SSW 4.6 mph - N/A   Clear
4:53 AM 70.0 °F - 68.0 °F 93% 29.93 in 10.0 mi SSW 5.8 mph - N/A   Clear
5:53 AM 70.0 °F - 68.0 °F 93% 29.93 in 10.0 mi South 5.8 mph - N/A   Clear
6:53 AM 72.0 °F - 70.0 °F 93% 29.94 in 10.0 mi South 3.5 mph - N/A   Clear
7:53 AM 75.0 °F - 71.1 °F 87% 29.96 in 9.0 mi South 6.9 mph - N/A   Clear
8:53 AM 78.1 °F - 71.1 °F 79% 29.96 in 10.0 mi SSE 5.8 mph - N/A   Clear
9:53 AM 80.1 °F 83.2 °F 70.0 °F 71% 29.99 in 10.0 mi Calm Calm - N/A   Clear
10:53 AM 82.0 °F 85.9 °F 70.0 °F 67% 30.00 in 10.0 mi ENE 4.6 mph - N/A   Clear
11:53 AM 84.0 °F 88.4 °F 70.0 °F 63% 30.00 in 10.0 mi Calm Calm - N/A   Scattered Clouds
12:53 PM 84.9 °F 89.4 °F 70.0 °F 61% 29.97 in 10.0 mi SSW 5.8 mph - N/A   Partly Cloudy
1:53 PM 87.1 °F 91.3 °F 69.1 °F 55% 29.95 in 10.0 mi Variable 3.5 mph - N/A   Clear
2:53 PM 88.0 °F 91.4 °F 68.0 °F 51% 29.93 in 10.0 mi WSW 4.6 mph - N/A   Clear
3:53 PM 88.0 °F 92.1 °F 69.1 °F 53% 29.91 in 10.0 mi South 8.1 mph - N/A   Partly Cloudy
4:53 PM 89.1 °F 92.1 °F 66.9 °F 48% 29.89 in 10.0 mi SW 9.2 mph - N/A   Clear
5:53 PM 88.0 °F 90.3 °F 66.0 °F 48% 29.89 in 10.0 mi SW 8.1 mph - N/A   Clear
6:53 PM 84.9 °F 87.1 °F 66.0 °F 53% 29.88 in 10.0 mi SSW 8.1 mph - N/A   Clear
7:53 PM 80.1 °F 81.9 °F 64.9 °F 60% 29.88 in 10.0 mi SSW 8.1 mph - N/A   Clear
8:53 PM 78.1 °F - 64.9 °F 64% 29.89 in 10.0 mi SSW 4.6 mph - N/A   Clear
9:53 PM 75.0 °F - 66.9 °F 76% 29.91 in 10.0 mi SSW 4.6 mph - N/A   Clear
10:53 PM 75.9 °F - 68.0 °F 76% 29.91 in 10.0 mi SSW 3.5 mph - N/A   Clear
11:53 PM 73.9 °F - 69.1 °F 85% 29.92 in 10.0 mi Calm Calm - N/A   Clear